Home   Weather   Moorpark   Past weeks
Flag for USA

Past Weather in Moorpark, California, USA — Yesterday and Last 2 Weeks

Now
61 °F

Mostly cloudy.


Feels Like: 61 °F
Forecast: 62 / 54 °F
Wind: 3 mph from South

Location: Camarillo Airport

Current Time: Dec 8, 2019 at 2:31:50 am

Latest Report: Dec 8, 2019 at 1:55 am


Visibility: 7 mi

Pressure: 30.09 "Hg

Humidity: 87%

Dew Point: 57 °F

Location of MoorparkLocation

Past Weather in Moorpark — Graph

°F

Moorpark Temperature Yesterday

Maximum temperature yesterday: 66 °F (at 10:55 am)
Minimum temperature yesterday: 59 °F (at 12:30 am)
Average temperature yesterday: 62 °F

High & Low Weather Summary for the Past Weeks

 TemperatureHumidityPressure
High79 °F (Nov 24, 10:55 am)90% (Nov 27, 7:14 am)30.20 "Hg (Nov 27, 7:14 am)
Low38 °F (Nov 29, 4:55 am)14% (Nov 24, 10:55 am)29.54 "Hg (Nov 28, 5:18 pm)
Average57 °F66%29.98 "Hg
* Reported Nov 23 2:55 am — Dec 8 1:10 am, Moorpark. Weather by CustomWeather, © 2019

Note: Actual official high and low records may vary slightly from our data, if they occured in-between our weather recording intervals... More about our weather records

Moorpark Weather History for the Previous 24 Hours

Scroll right to see more
 ConditionsComfort  
Time TempWeatherWind HumidityBarometerVisibility
1:10 am
Sun, Dec 8
61 °FFog.No wind87%30.06 "Hg4 mi
11:55 pm
Sat, Dec 7
60 °FLight rain. Fog.No wind90%30.11 "Hg4 mi
11:31 pm60 °FFog.No wind90%30.08 "Hg4 mi
10:55 pm60 °FLight rain. Fog.5 mph86%30.11 "Hg4 mi
10:36 pm60 °FLight rain. Overcast.3 mph86%30.09 "Hg7 mi
9:55 pm61 °FLight rain. Fog.3 mph87%30.11 "Hg5 mi
8:55 pm61 °FLight rain. Fog.No wind87%30.11 "Hg3 mi
8:31 pm61 °FMostly cloudy.No wind87%30.08 "Hg9 mi
8:05 pm61 °FLow clouds.No wind87%30.08 "Hg10 mi
7:55 pm61 °FOvercast.No wind87%30.11 "Hg10 mi
7:02 pm61 °FMostly cloudy.5 mph87%30.08 "Hg7 mi
6:55 pm61 °FFog.3 mph90%30.10 "Hg6 mi
6:44 pm61 °FFog.No wind87%30.08 "Hg4 mi
6:23 pm61 °FLight rain. Fog.No wind90%30.07 "Hg2 mi
5:55 pm62 °FFog.5 mph86%30.10 "Hg6 mi
5:30 pm62 °FFog.No wind86%30.05 "Hg3 mi
5:04 pm62 °FOvercast.No wind86%30.05 "Hg7 mi
3:55 pm62 °FMostly cloudy.No wind83%30.09 "Hg4 mi
3:10 pm62 °FLight rain. Overcast.3 mph83%30.07 "Hg2 mi
2:55 pm63 °FCloudy.6 mph78%30.10 "Hg10 mi
2:27 pm64 °FMore clouds than sun.5 mph78%30.07 "Hg10 mi
2:18 pm63 °FMore clouds than sun.8 mph81%30.08 "Hg10 mi
1:55 pm64 °FOvercast.9 mph81%30.10 "Hg10 mi
12:55 pm65 °FOvercast.No wind76%30.12 "Hg10 mi
12:11 pm66 °FMostly cloudy.No wind73%30.10 "Hg10 mi
11:55 am66 °FLight rain. Overcast.No wind73%30.12 "Hg10 mi
11:38 am65 °FLight rain. More clouds than sun.No wind73%30.11 "Hg7 mi
11:12 am66 °FMostly cloudy.7 mph73%30.14 "Hg10 mi
10:55 am66 °FOvercast.7 mph73%30.16 "Hg10 mi
9:55 am65 °FOvercast.6 mph78%30.18 "Hg10 mi
8:55 am63 °FMore clouds than sun.6 mph81%30.17 "Hg10 mi
7:55 am61 °FOvercast.3 mph87%30.16 "Hg8 mi
6:55 am60 °FLight rain. Fog.6 mph86%30.15 "Hg4 mi
5:55 am60 °FOvercast.5 mph86%30.14 "Hg10 mi
4:55 am60 °FOvercast.7 mph86%30.13 "Hg10 mi
4:13 am59 °FFog.6 mph90%30.11 "Hg3 mi
3:55 am60 °FMostly cloudy.3 mph83%30.14 "Hg3 mi
2:55 am59 °FOvercast.3 mph87%30.14 "Hg9 mi
Weather by CustomWeather, © 2019

See weather overview

Advertising